DAL4522 SEQM-SEGU

Flight info

Callsign DAL4522
Flight time N/A
Altitude 22000
Route TEMOX3B TEMOX TEMOX2
Aircraft B738/M-SDE2E3FGHIRWXY/LB1

Departure

Time N/A
Airport Mariscal Sucre International Airport (SEQM)

Arrival

Time 2026-04-28 16:15
Airport José Joaquín de Olmedo International Airport (SEGU)
Time Latitude Longitude Altitude Speed Heading
2026-04-28 15:54 -0.69475 -79.17999 22166 ft 430 kts 202°
2026-04-28 15:54 -0.71261 -79.18798 22160 ft 430 kts 202°
2026-04-28 15:54 -0.73989 -79.20027 22155 ft 431 kts 203°
2026-04-28 15:55 -0.76688 -79.21256 22129 ft 419 kts 203°
2026-04-28 15:55 -0.79288 -79.22452 22123 ft 404 kts 203°
2026-04-28 15:55 -0.81802 -79.23616 22126 ft 391 kts 203°
2026-04-28 15:55 -0.84249 -79.24751 22124 ft 387 kts 203°
2026-04-28 15:56 -0.86713 -79.25893 21811 ft 393 kts 203°
2026-04-28 15:56 -0.89183 -79.27039 21372 ft 392 kts 203°
2026-04-28 15:56 -0.91657 -79.28187 20874 ft 392 kts 203°
2026-04-28 15:56 -0.94128 -79.29334 20355 ft 392 kts 203°
2026-04-28 15:57 -0.96602 -79.30482 19806 ft 393 kts 203°
2026-04-28 15:57 -0.99090 -79.31638 19238 ft 396 kts 203°
2026-04-28 15:57 -1.01595 -79.32800 18664 ft 398 kts 203°
2026-04-28 15:57 -1.04116 -79.33971 18002 ft 402 kts 204°
2026-04-28 15:58 -1.06657 -79.35150 17336 ft 399 kts 204°
2026-04-28 15:58 -1.09138 -79.36304 16827 ft 388 kts 204°
2026-04-28 15:58 -1.11582 -79.37439 16361 ft 386 kts 204°
2026-04-28 15:58 -1.14008 -79.38566 15881 ft 384 kts 204°
2026-04-28 15:59 -1.16423 -79.39687 15417 ft 381 kts 204°
2026-04-28 15:59 -1.18013 -79.40425 15119 ft 380 kts 204°
2026-04-28 15:59 -1.21209 -79.41910 14493 ft 377 kts 204°
2026-04-28 15:59 -1.23583 -79.43012 14028 ft 375 kts 204°
2026-04-28 16:00 -1.25920 -79.44097 13547 ft 374 kts 204°
2026-04-28 16:00 -1.28271 -79.45188 13072 ft 371 kts 204°
2026-04-28 16:00 -1.30638 -79.46287 12605 ft 369 kts 204°
2026-04-28 16:00 -1.32176 -79.47001 12311 ft 369 kts 204°
2026-04-28 16:01 -1.35253 -79.48430 11829 ft 365 kts 204°
2026-04-28 16:01 -1.37525 -79.49486 11648 ft 355 kts 204°
2026-04-28 16:01 -1.39737 -79.50514 11487 ft 345 kts 204°
2026-04-28 16:01 -1.41881 -79.51510 11330 ft 335 kts 204°
2026-04-28 16:02 -1.43967 -79.52479 11198 ft 325 kts 204°
2026-04-28 16:02 -1.45991 -79.53420 11064 ft 317 kts 204°
2026-04-28 16:02 -1.47328 -79.54041 10965 ft 311 kts 204°
2026-04-28 16:02 -1.49234 -79.54926 10895 ft 300 kts 204°
2026-04-28 16:03 -1.51121 -79.55803 10505 ft 300 kts 204°
2026-04-28 16:03 -1.52993 -79.56672 10176 ft 294 kts 204°
2026-04-28 16:03 -1.54832 -79.57526 9829 ft 289 kts 205°
2026-04-28 16:03 -1.56631 -79.58362 9501 ft 283 kts 205°
2026-04-28 16:04 -1.58413 -79.59190 9213 ft 281 kts 205°
2026-04-28 16:04 -1.60183 -79.60013 8920 ft 281 kts 205°
2026-04-28 16:04 -1.61958 -79.60837 8625 ft 280 kts 205°
2026-04-28 16:04 -1.63721 -79.61657 8338 ft 279 kts 205°
2026-04-28 16:05 -1.65483 -79.62476 8046 ft 279 kts 205°
2026-04-28 16:05 -1.67238 -79.63292 8007 ft 278 kts 205°
2026-04-28 16:05 -1.69006 -79.64114 7539 ft 280 kts 205°
2026-04-28 16:05 -1.70745 -79.64922 7227 ft 272 kts 205°
2026-04-28 16:06 -1.72437 -79.65709 6921 ft 264 kts 205°
2026-04-28 16:06 -1.74082 -79.66474 6636 ft 257 kts 205°
2026-04-28 16:06 -1.75659 -79.67208 6372 ft 250 kts 205°
2026-04-28 16:06 -1.77211 -79.67929 6120 ft 242 kts 205°
2026-04-28 16:07 -1.78717 -79.68630 5877 ft 235 kts 205°
2026-04-28 16:07 -1.80180 -79.69310 5627 ft 229 kts 205°
2026-04-28 16:07 -1.83042 -79.70641 5186 ft 222 kts 205°
2026-04-28 16:08 -1.84436 -79.71290 4948 ft 221 kts 205°
2026-04-28 16:08 -1.85830 -79.71939 4716 ft 221 kts 205°
2026-04-28 16:08 -1.87223 -79.72586 4464 ft 221 kts 205°
2026-04-28 16:09 -1.89949 -79.73854 4386 ft 211 kts 205°
2026-04-28 16:09 -1.91254 -79.74461 4383 ft 202 kts 205°
2026-04-28 16:09 -1.92510 -79.75032 4386 ft 197 kts 206°
2026-04-28 16:10 -1.94949 -79.76312 4396 ft 197 kts 210°
2026-04-28 16:10 -1.96148 -79.76995 4193 ft 200 kts 210°
2026-04-28 16:10 -1.98543 -79.78382 3673 ft 196 kts 210°
2026-04-28 16:11 -2.00781 -79.79681 3175 ft 174 kts 210°
2026-04-28 16:11 -2.02740 -79.80817 2757 ft 160 kts 210°
2026-04-28 16:12 -2.04644 -79.81922 2330 ft 157 kts 210°
2026-04-28 16:12 -2.05575 -79.82462 2128 ft 157 kts 210°
2026-04-28 16:13 -2.07462 -79.83557 1708 ft 156 kts 210°
2026-04-28 16:13 -2.08397 -79.84099 1501 ft 155 kts 210°
2026-04-28 16:13 -2.10262 -79.85181 1089 ft 154 kts 210°
2026-04-28 16:14 -2.12120 -79.86257 673 ft 154 kts 211°
2026-04-28 16:14 -2.13957 -79.87343 264 ft 153 kts 210°
2026-04-28 16:15 -2.15718 -79.88354 21 ft 126 kts 209°
2026-04-28 16:15 -2.16232 -79.88648 23 ft 42 kts 210°
2026-04-28 16:15 -2.16319 -79.88698 24 ft 10 kts 210°
2026-04-28 16:16 -2.16259 -79.88773 23 ft 15 kts 29°
2026-04-28 16:16 -2.16168 -79.88720 23 ft 15 kts 30°
2026-04-28 16:17 -2.15996 -79.88620 22 ft 14 kts 29°
2026-04-28 16:17 -2.15912 -79.88573 22 ft 15 kts 30°
2026-04-28 16:17 -2.15811 -79.88515 23 ft 19 kts 30°
2026-04-28 16:17 -2.15682 -79.88441 21 ft 23 kts 30°
2026-04-28 16:18 -2.15535 -79.88357 23 ft 25 kts 30°
2026-04-28 16:18 -2.15384 -79.88270 21 ft 24 kts 31°
2026-04-28 16:18 -2.15253 -79.88246 22 ft 19 kts 308°
2026-04-28 16:18 -2.15186 -79.88358 21 ft 18 kts 300°
2026-04-28 16:19 -2.15114 -79.88385 23 ft 11 kts 27°
2026-04-28 16:19 -2.15041 -79.88344 21 ft 13 kts 28°
2026-04-28 16:19 -2.14987 -79.88366 21 ft 10 kts 304°
2026-04-28 16:19 -2.14979 -79.88381 21 ft 0 kts 302°